Weather History for Pine River, MN

Change the Weather History Date:

Tuesday, August 6, 2013

  Actual Average Record
Temperature  
Mean Temperature 58 °F -  
Max Temperature 71 °F 75 °F 93 °F (2001)
Min Temperature 46 °F 52 °F 44 °F (2004)
Degree Days  
Heating Degree Days 6    
Growing Degree Days 8 (Base 50)    
Moisture  
Dew Point 56 °F    
Average Humidity 90    
Maximum Humidity 100    
Minimum Humidity 64    
Precipitation  
Precipitation 1.25 in - - ()
Sea Level Pressure  
Sea Level Pressure 29.82 in    
Wind  
Wind Speed 2 mph (SSE)    
Max Wind Speed 18 mph    
Max Gust Speed 30 mph    
Visibility 9 miles    
Events Rain , Thunderstorm    
Averages and records for this station are not official NWS values.
T = Trace of Precipitation, MM = Missing Value Source: NWS Daily Summary

Daily Weather History Graph

Daily Weather History Graph

Search for Another Location

Airport:

Trip Planner

Search our weather history database for the weather conditions in past years. The results will help you decide how hot, cold, wet, or windy it might be!

Date:

Astronomy

Aug. 06, 2013 Rise Set
Actual Time 6:04 AM CDT 8:41 PM CDT
Civil Twilight 5:29 AM CDT 9:15 PM CDT
Nautical Twilight 4:46 AM CDT 9:59 PM CDT
Astronomical Twilight 3:55 AM CDT 10:49 PM CDT
Moon 6:00 AM CDT (8/6) 8:11 PM CDT (8/6)
Length of Visible Light 15h 46m
Length of Day
14h 37m
Waning Crescent, 0% of the Moon is Illuminated
Aug 6
Waning Crescent
Aug 6
New
Aug 14
First Quarter
Aug 20
Full
Aug 28
Last Quarter

Hourly Weather History & Observations

Time (CDT) Temp. Dew Point Humidity Pressure Visibility Wind Dir Wind Speed Gust Speed Precip Events Conditions
12:13 AM 53.6 °F 51.8 °F 94% 29.89 in 10.0 mi Calm Calm - N/A   Clear
12:32 AM 53.6 °F 51.8 °F 94% 29.88 in 10.0 mi Calm Calm - N/A   Clear
12:53 AM 51.8 °F 51.8 °F 100% 29.88 in 10.0 mi Calm Calm - N/A   Clear
1:13 AM 51.8 °F 51.8 °F 100% 29.88 in 10.0 mi Calm Calm - N/A   Clear
1:33 AM 50.0 °F 50.0 °F 100% 29.86 in 10.0 mi Calm Calm - N/A   Clear
1:53 AM 51.8 °F 51.8 °F 100% 29.85 in 7.0 mi Calm Calm - N/A   Clear
2:12 AM 51.8 °F 51.8 °F 100% 29.86 in 7.0 mi Calm Calm - N/A   Clear
2:33 AM 48.2 °F 48.2 °F 100% 29.86 in 10.0 mi Calm Calm - N/A   Clear
2:53 AM 48.2 °F 48.2 °F 100% 29.86 in 10.0 mi Calm Calm - N/A   Clear
3:13 AM 48.2 °F 48.2 °F 100% 29.86 in 7.0 mi Calm Calm - N/A   Clear
3:32 AM 48.2 °F 46.4 °F 93% 29.85 in 10.0 mi Calm Calm - N/A   Clear
3:53 AM 48.2 °F 48.2 °F 100% 29.84 in 10.0 mi Calm Calm - N/A   Clear
4:12 AM 48.2 °F 48.2 °F 100% 29.83 in 10.0 mi Calm Calm - N/A   Clear
4:32 AM 48.2 °F 48.2 °F 100% 29.83 in 7.0 mi Calm Calm - N/A   Clear
4:51 AM 48.2 °F 48.2 °F 100% 29.82 in 10.0 mi Calm Calm - N/A   Clear
5:12 AM 46.4 °F 46.4 °F 100% 29.84 in 1.5 mi Calm Calm - N/A   Mostly Cloudy
5:32 AM 46.4 °F 46.4 °F 100% 29.82 in 1.2 mi Calm Calm - N/A   Mostly Cloudy
5:52 AM 46.4 °F 46.4 °F 100% 29.83 in 2.5 mi Calm Calm - N/A   Mostly Cloudy
6:13 AM 46.4 °F 46.4 °F 100% 29.83 in 1.5 mi Calm Calm - N/A   Mostly Cloudy
6:33 AM 46.4 °F 46.4 °F 100% 29.84 in 10.0 mi Calm Calm - N/A   Scattered Clouds
6:53 AM 50.0 °F 50.0 °F 100% 29.83 in 10.0 mi Calm Calm - N/A   Clear
7:13 AM 51.8 °F 51.8 °F 100% 29.85 in 10.0 mi Calm Calm - N/A   Clear
7:32 AM 53.6 °F 53.6 °F 100% 29.83 in 10.0 mi Calm Calm - N/A   Clear
7:53 AM 53.6 °F 53.6 °F 100% 29.82 in 10.0 mi SE 3.5 mph - N/A   Clear
8:12 AM 55.4 °F 55.4 °F 100% 29.83 in 10.0 mi Calm Calm - N/A   Clear
8:32 AM 57.2 °F 55.4 °F 94% 29.83 in 10.0 mi Calm Calm - N/A   Clear
8:52 AM 60.8 °F 55.4 °F 82% 29.83 in 10.0 mi Calm Calm - N/A   Clear
9:12 AM 62.6 °F 55.4 °F 77% 29.83 in 10.0 mi South 4.6 mph - N/A   Clear
9:33 AM 60.8 °F 55.4 °F 82% 29.82 in 10.0 mi SE 3.5 mph - N/A   Clear
9:52 AM 62.6 °F 57.2 °F 82% 29.82 in 10.0 mi South 3.5 mph - N/A Rain Light Rain
10:13 AM 62.6 °F 57.2 °F 82% 29.83 in 10.0 mi SSW 4.6 mph - N/A   Scattered Clouds
10:32 AM 62.6 °F 55.4 °F 77% 29.84 in 10.0 mi SSW 11.5 mph - N/A   Mostly Cloudy
10:53 AM 62.6 °F 55.4 °F 77% 29.83 in 10.0 mi South 5.8 mph - N/A Rain Light Rain
11:13 AM 62.6 °F 55.4 °F 77% 29.82 in 10.0 mi South 5.8 mph - N/A   Scattered Clouds
11:33 AM 62.6 °F 55.4 °F 77% 29.81 in 10.0 mi South 5.8 mph - N/A   Scattered Clouds
11:52 AM 62.6 °F 55.4 °F 77% 29.82 in 10.0 mi South 5.8 mph - N/A   Mostly Cloudy
12:13 PM 64.4 °F 55.4 °F 73% 29.81 in 10.0 mi South 4.6 mph - N/A   Scattered Clouds
12:33 PM 66.2 °F 57.2 °F 73% 29.80 in 10.0 mi South 5.8 mph - N/A   Scattered Clouds
12:52 PM 66.2 °F 57.2 °F 73% 29.80 in 10.0 mi South 5.8 mph - N/A   Scattered Clouds
1:13 PM 69.8 °F 57.2 °F 64% 29.80 in 10.0 mi South 5.8 mph - N/A   Scattered Clouds
1:33 PM 71.6 °F 59.0 °F 64% 29.79 in 10.0 mi South 4.6 mph - N/A   Scattered Clouds
1:52 PM 71.6 °F 59.0 °F 64% 29.79 in 10.0 mi SSE 5.8 mph - N/A   Scattered Clouds
2:13 PM 71.6 °F 59.0 °F 64% 29.79 in 7.0 mi Calm Calm - N/A   Scattered Clouds
2:32 PM 71.6 °F 60.8 °F 69% 29.79 in 10.0 mi Calm Calm - N/A   Scattered Clouds
2:53 PM 71.6 °F 60.8 °F 69% 29.79 in 10.0 mi Calm Calm - N/A   Overcast
3:12 PM 71.6 °F 60.8 °F 69% 29.78 in 10.0 mi SE 3.5 mph - N/A   Overcast
3:33 PM 71.6 °F 60.8 °F 69% 29.76 in 10.0 mi ESE 11.5 mph - N/A   Overcast
3:52 PM 64.4 °F 60.8 °F 88% 29.78 in 2.0 mi NNW 18.4 mph 29.9 mph 0.15 in Rain , Thunderstorm Heavy Thunderstorms and Rain
4:12 PM 60.8 °F 57.2 °F 88% 29.78 in 2.0 mi Calm Calm - 1.06 in Rain , Thunderstorm Heavy Thunderstorms and Rain
4:33 PM 59.0 °F 57.2 °F 94% 29.78 in 5.0 mi East 4.6 mph - 1.10 in Rain Rain
4:53 PM 57.2 °F 57.2 °F 100% 29.79 in 10.0 mi Calm Calm - N/A   Overcast
5:13 PM 59.0 °F 59.0 °F 100% 29.79 in 10.0 mi Calm Calm - N/A Thunderstorm Mostly Cloudy
5:33 PM 60.8 °F 59.0 °F 94% 29.79 in 10.0 mi Calm Calm - N/A   Mostly Cloudy
5:52 PM 60.8 °F 60.8 °F 100% 29.80 in 10.0 mi Calm Calm - N/A   Scattered Clouds
6:12 PM 62.6 °F 60.8 °F 94% 29.77 in 10.0 mi North 4.6 mph - N/A   Scattered Clouds
6:32 PM 62.6 °F 60.8 °F 94% 29.77 in 10.0 mi NNW 3.5 mph - N/A   Clear
6:53 PM 62.6 °F 60.8 °F 94% 29.78 in 10.0 mi Calm Calm - N/A   Clear
7:12 PM 62.6 °F 62.6 °F 100% 29.80 in 10.0 mi Calm Calm - N/A   Clear
7:32 PM 62.6 °F 62.6 °F 100% 29.80 in 10.0 mi Calm Calm - N/A Rain Light Rain
7:52 PM 62.6 °F 62.6 °F 100% 29.80 in 10.0 mi Calm Calm - N/A   Light Drizzle
8:13 PM 62.6 °F 62.6 °F 100% 29.78 in 10.0 mi Calm Calm - N/A   Drizzle
8:32 PM 62.6 °F 62.6 °F 100% 29.79 in 10.0 mi North 3.5 mph - N/A   Light Drizzle
8:53 PM 62.6 °F 62.6 °F 100% 29.80 in 10.0 mi North 6.9 mph - N/A   Overcast
9:13 PM 62.6 °F 60.8 °F 94% 29.81 in 10.0 mi North 3.5 mph - N/A   Overcast
9:32 PM 62.6 °F 60.8 °F 94% 29.83 in 10.0 mi NNW 4.6 mph - N/A   Overcast
9:52 PM 62.6 °F 60.8 °F 94% 29.84 in 10.0 mi NNW 5.8 mph - N/A Rain Light Rain
10:13 PM 62.6 °F 60.8 °F 94% 29.85 in 10.0 mi North 6.9 mph - N/A   Overcast
10:32 PM 62.6 °F 57.2 °F 82% 29.86 in 10.0 mi NNW 9.2 mph - N/A   Overcast
10:52 PM 62.6 °F 59.0 °F 88% 29.86 in 10.0 mi North 5.8 mph - N/A   Overcast
11:12 PM 62.6 °F 59.0 °F 88% 29.86 in 10.0 mi North 6.9 mph - N/A   Overcast
11:32 PM 62.6 °F 59.0 °F 88% 29.87 in 10.0 mi North 6.9 mph - N/A   Overcast
11:53 PM 60.8 °F 57.2 °F 88% 29.87 in 10.0 mi North 5.8 mph - N/A   Overcast